Time,TemperatureF,DewpointF,PressureIn,WindDirection,WindDirectionDegrees,WindSpeedMPH,WindSpeedGustMPH,Humidity,HourlyPrecipIn,Conditions,Clouds,dailyrainin,SoftwareType,DateUTC
2013-08-17 00:03:00,72.9,61.7,30.24,SW,233,4.0,5.0,68,0.00,,,0.12,meteohub,2013-08-17 07:03:00,
2013-08-17 00:08:00,73.0,61.9,30.24,NW,304,1.0,9.0,68,0.00,,,0.00,meteohub,2013-08-17 07:08:00,
2013-08-17 00:13:00,73.2,62.1,30.24,SW,236,1.0,9.0,68,0.00,,,0.00,meteohub,2013-08-17 07:13:00,
2013-08-17 00:18:00,73.0,62.2,30.24,West,280,2.0,9.0,69,0.00,,,0.00,meteohub,2013-08-17 07:18:00,
2013-08-17 00:23:00,72.9,62.1,30.24,WSW,248,4.0,9.0,69,0.00,,,0.00,meteohub,2013-08-17 07:23:00,
2013-08-17 00:28:00,72.7,62.2,30.24,SW,234,2.0,8.0,70,0.00,,,0.00,meteohub,2013-08-17 07:28:00,
2013-08-17 00:34:00,72.3,62.4,30.24,WNW,288,3.0,7.0,71,0.00,,,0.00,meteohub,2013-08-17 07:34:00,
2013-08-17 00:39:00,72.1,62.2,30.24,WNW,282,2.0,6.0,71,0.00,,,0.00,meteohub,2013-08-17 07:39:00,
2013-08-17 00:44:00,72.0,62.4,30.25,West,259,2.0,6.0,72,0.00,,,0.00,meteohub,2013-08-17 07:44:00,
2013-08-17 00:49:00,71.8,62.2,30.25,West,280,2.0,7.0,72,0.00,,,0.00,meteohub,2013-08-17 07:49:00,
2013-08-17 00:54:00,71.8,62.2,30.25,West,273,1.0,7.0,72,0.00,,,0.00,meteohub,2013-08-17 07:54:00,
2013-08-17 00:59:00,71.6,62.4,30.25,WNW,292,3.0,8.0,73,0.00,,,0.00,meteohub,2013-08-17 07:59:00,
2013-08-17 01:04:00,71.4,62.2,30.25,WSW,253,2.0,8.0,73,0.00,,,0.00,meteohub,2013-08-17 08:04:00,
2013-08-17 01:09:00,71.4,62.2,30.25,SW,233,2.0,8.0,73,0.00,,,0.00,meteohub,2013-08-17 08:09:00,
2013-08-17 01:15:00,71.2,62.1,30.25,WSW,246,5.0,7.0,73,0.00,,,0.00,meteohub,2013-08-17 08:15:00,
2013-08-17 01:20:00,71.1,62.4,30.25,WSW,252,4.0,7.0,74,0.00,,,0.00,meteohub,2013-08-17 08:20:00,
2013-08-17 01:25:00,70.9,62.2,30.25,West,277,3.0,11.0,74,0.00,,,0.00,meteohub,2013-08-17 08:25:00,
2013-08-17 01:30:00,70.9,62.2,30.25,SW,225,3.0,11.0,74,0.00,,,0.00,meteohub,2013-08-17 08:30:00,
2013-08-17 01:35:00,71.1,62.4,30.25,NW,311,4.0,11.0,74,0.00,,,0.00,meteohub,2013-08-17 08:35:00,
2013-08-17 01:40:00,70.9,62.2,30.25,West,263,3.0,13.0,74,0.00,,,0.00,meteohub,2013-08-17 08:40:00,
2013-08-17 01:45:00,70.7,62.4,30.25,WSW,256,3.0,13.0,75,0.00,,,0.00,meteohub,2013-08-17 08:45:00,
2013-08-17 01:50:00,70.5,61.9,30.25,West,274,4.0,11.0,74,0.00,,,0.00,meteohub,2013-08-17 08:50:00,
2013-08-17 01:55:00,70.5,62.2,30.25,SW,227,6.0,13.0,75,0.00,,,0.00,meteohub,2013-08-17 08:55:00,
2013-08-17 02:01:00,70.3,62.1,30.25,SW,235,6.0,13.0,75,0.00,,,0.00,meteohub,2013-08-17 09:01:00,
2013-08-17 02:06:00,70.3,62.1,30.25,WSW,256,2.0,13.0,75,0.00,,,0.00,meteohub,2013-08-17 09:06:00,
2013-08-17 02:11:00,70.2,61.9,30.24,SW,230,7.0,10.0,75,0.00,,,0.00,meteohub,2013-08-17 09:11:00,
2013-08-17 02:16:00,70.2,61.9,30.24,WNW,298,5.0,10.0,75,0.00,,,0.00,meteohub,2013-08-17 09:16:00,
2013-08-17 02:21:00,70.2,61.9,30.24,WSW,245,6.0,14.0,75,0.00,,,0.00,meteohub,2013-08-17 09:21:00,
2013-08-17 02:26:00,70.0,61.7,30.24,WNW,283,5.0,14.0,75,0.00,,,0.00,meteohub,2013-08-17 09:26:00,
2013-08-17 02:31:00,69.6,61.3,30.24,WSW,237,3.0,14.0,75,0.00,,,0.00,meteohub,2013-08-17 09:31:00,
2013-08-17 02:36:00,69.6,61.3,30.24,WSW,254,4.0,13.0,75,0.00,,,0.00,meteohub,2013-08-17 09:36:00,
2013-08-17 02:42:00,69.4,61.2,30.24,WSW,253,5.0,13.0,75,0.00,,,0.00,meteohub,2013-08-17 09:42:00,
2013-08-17 02:47:00,69.4,61.2,30.25,West,261,5.0,13.0,75,0.00,,,0.00,meteohub,2013-08-17 09:47:00,
2013-08-17 02:52:00,69.4,60.8,30.25,SW,233,2.0,10.0,74,0.00,,,0.00,meteohub,2013-08-17 09:52:00,
2013-08-17 02:57:00,69.3,61.0,30.25,WNW,288,4.0,10.0,75,0.00,,,0.00,meteohub,2013-08-17 09:57:00,
2013-08-17 03:02:00,69.1,60.8,30.25,SSW,209,2.0,9.0,75,0.00,,,0.00,meteohub,2013-08-17 10:02:00,
2013-08-17 03:07:00,68.9,60.6,30.25,WNW,283,3.0,7.0,75,0.00,,,0.00,meteohub,2013-08-17 10:07:00,
2013-08-17 03:12:00,68.7,60.4,30.25,WSW,238,3.0,7.0,75,0.00,,,0.00,meteohub,2013-08-17 10:12:00,
2013-08-17 03:17:00,68.5,60.3,30.25,NW,306,1.0,7.0,75,0.00,,,0.00,meteohub,2013-08-17 10:17:00,
2013-08-17 03:22:00,68.4,60.4,30.25,WNW,295,3.0,6.0,76,0.00,,,0.00,meteohub,2013-08-17 10:22:00,
2013-08-17 03:28:00,68.4,60.4,30.25,WNW,290,11.0,11.0,76,0.00,,,0.00,meteohub,2013-08-17 10:28:00,
2013-08-17 03:33:00,68.2,60.3,30.25,WSW,238,6.0,11.0,76,0.00,,,0.00,meteohub,2013-08-17 10:33:00,
2013-08-17 03:38:00,68.0,60.1,30.25,WSW,248,5.0,11.0,76,0.00,,,0.00,meteohub,2013-08-17 10:38:00,
2013-08-17 03:43:00,67.6,59.7,30.25,SW,233,3.0,11.0,76,0.00,,,0.00,meteohub,2013-08-17 10:43:00,
2013-08-17 03:48:00,67.5,60.1,30.25,WNW,283,2.0,11.0,77,0.00,,,0.00,meteohub,2013-08-17 10:48:00,
2013-08-17 03:53:00,67.3,59.9,30.25,WSW,250,3.0,11.0,77,0.00,,,0.00,meteohub,2013-08-17 10:53:00,
2013-08-17 03:58:00,67.3,59.9,30.25,WSW,256,2.0,11.0,77,0.00,,,0.00,meteohub,2013-08-17 10:58:00,
2013-08-17 04:04:00,67.3,59.9,30.25,WNW,286,2.0,10.0,77,0.00,,,0.00,meteohub,2013-08-17 11:04:00,
2013-08-17 04:09:00,67.3,59.5,30.25,WSW,256,3.0,11.0,76,0.00,,,0.00,meteohub,2013-08-17 11:09:00,
2013-08-17 04:14:00,67.5,59.2,30.25,SSW,213,2.0,11.0,75,0.00,,,0.00,meteohub,2013-08-17 11:14:00,
2013-08-17 04:19:00,67.3,59.0,30.25,WSW,256,6.0,11.0,75,0.00,,,0.00,meteohub,2013-08-17 11:19:00,
2013-08-17 04:24:00,67.1,58.8,30.25,WSW,248,5.0,11.0,75,0.00,,,0.00,meteohub,2013-08-17 11:24:00,
2013-08-17 04:29:00,66.9,58.8,30.25,WNW,297,4.0,12.0,75,0.00,,,0.00,meteohub,2013-08-17 11:29:00,
2013-08-17 04:34:00,66.9,58.8,30.25,WSW,244,2.0,12.0,75,0.00,,,0.00,meteohub,2013-08-17 11:34:00,
2013-08-17 04:39:00,66.9,58.8,30.25,WSW,250,3.0,11.0,75,0.00,,,0.00,meteohub,2013-08-17 11:39:00,
2013-08-17 04:44:00,66.7,58.6,30.25,West,274,2.0,11.0,75,0.00,,,0.00,meteohub,2013-08-17 11:44:00,
2013-08-17 04:49:00,66.7,58.6,30.25,West,267,6.0,11.0,75,0.00,,,0.00,meteohub,2013-08-17 11:49:00,
2013-08-17 04:54:00,66.6,58.8,30.25,WNW,283,6.0,11.0,76,0.00,,,0.00,meteohub,2013-08-17 11:54:00,
2013-08-17 04:59:00,66.2,58.8,30.25,WNW,286,1.0,7.0,77,0.00,,,0.00,meteohub,2013-08-17 11:59:00,
2013-08-17 05:05:00,66.0,58.6,30.26,West,270,2.0,7.0,77,0.00,,,0.00,meteohub,2013-08-17 12:05:00,
2013-08-17 05:06:00,66.0,58.6,30.26,WNW,288,3.0,12.0,77,0.00,,,0.00,meteohub,2013-08-17 12:06:00,
2013-08-17 05:11:00,65.8,58.5,30.26,SSW,211,3.0,12.0,77,0.00,,,0.00,meteohub,2013-08-17 12:11:00,
2013-08-17 05:16:00,65.8,58.1,30.26,WNW,284,2.0,12.0,76,0.00,,,0.00,meteohub,2013-08-17 12:16:00,
2013-08-17 05:21:00,65.8,57.7,30.26,West,277,3.0,12.0,75,0.00,,,0.00,meteohub,2013-08-17 12:21:00,
2013-08-17 05:26:00,65.8,57.7,30.26,WNW,300,4.0,12.0,75,0.00,,,0.00,meteohub,2013-08-17 12:26:00,
2013-08-17 05:31:00,65.8,57.7,30.26,WSW,249,1.0,12.0,75,0.00,,,0.00,meteohub,2013-08-17 12:31:00,
2013-08-17 05:36:00,65.7,57.2,30.27,West,264,0.0,12.0,74,0.00,,,0.00,meteohub,2013-08-17 12:36:00,
2013-08-17 05:41:00,65.7,56.8,30.27,West,281,5.0,10.0,73,0.00,,,0.00,meteohub,2013-08-17 12:41:00,
2013-08-17 05:47:00,65.5,56.7,30.27,West,263,2.0,9.0,73,0.00,,,0.00,meteohub,2013-08-17 12:47:00,
2013-08-17 05:52:00,65.5,56.7,30.27,WNW,299,6.0,8.0,73,0.00,,,0.00,meteohub,2013-08-17 12:52:00,
2013-08-17 05:57:00,65.7,56.3,30.27,NW,306,7.0,11.0,72,0.00,,,0.00,meteohub,2013-08-17 12:57:00,
2013-08-17 06:02:00,65.7,56.3,30.27,West,259,11.0,11.0,72,0.00,,,0.00,meteohub,2013-08-17 13:02:00,
2013-08-17 06:07:00,65.7,56.3,30.27,WNW,288,2.0,12.0,72,0.00,,,0.00,meteohub,2013-08-17 13:07:00,
2013-08-17 06:12:00,65.7,56.3,30.28,NNW,329,6.0,12.0,72,0.00,,,0.00,meteohub,2013-08-17 13:12:00,
2013-08-17 06:17:00,65.7,56.3,30.28,West,274,4.0,12.0,72,0.00,,,0.00,meteohub,2013-08-17 13:17:00,
2013-08-17 06:22:00,65.7,56.3,30.28,NW,311,3.0,12.0,72,0.00,,,0.00,meteohub,2013-08-17 13:22:00,
2013-08-17 06:27:00,65.7,56.3,30.28,West,268,1.0,11.0,72,0.00,,,0.00,meteohub,2013-08-17 13:27:00,
2013-08-17 06:32:00,65.7,56.3,30.28,North,355,2.0,10.0,72,0.00,,,0.00,meteohub,2013-08-17 13:32:00,
2013-08-17 06:37:00,65.5,56.3,30.29,NNW,343,1.0,10.0,72,0.00,,,0.00,meteohub,2013-08-17 13:37:00,
2013-08-17 06:42:00,65.7,56.3,30.29,NE,41,1.0,8.0,72,0.00,,,0.00,meteohub,2013-08-17 13:42:00,
2013-08-17 06:47:00,66.0,56.3,30.29,NNW,337,3.0,7.0,71,0.00,,,0.00,meteohub,2013-08-17 13:47:00,
2013-08-17 06:52:00,66.4,56.7,30.29,WSW,240,1.0,7.0,71,0.00,,,0.00,meteohub,2013-08-17 13:52:00,
2013-08-17 06:57:00,66.7,56.7,30.29,ESE,103,3.0,8.0,70,0.00,,,0.00,meteohub,2013-08-17 13:57:00,
2013-08-17 07:02:00,67.3,56.8,30.29,NE,51,0.0,8.0,69,0.00,,,0.00,meteohub,2013-08-17 14:02:00,
2013-08-17 07:08:00,67.8,56.8,30.30,ESE,105,0.0,8.0,68,0.00,,,0.00,meteohub,2013-08-17 14:08:00,
2013-08-17 07:13:00,67.5,56.5,30.30,WNW,283,0.0,5.0,68,0.00,,,0.00,meteohub,2013-08-17 14:13:00,
2013-08-17 07:18:00,67.5,56.5,30.30,WNW,303,2.0,5.0,68,0.00,,,0.00,meteohub,2013-08-17 14:18:00,
2013-08-17 07:23:00,67.5,56.5,30.30,WNW,284,3.0,5.0,68,0.00,,,0.00,meteohub,2013-08-17 14:23:00,
2013-08-17 07:29:00,67.3,56.8,30.30,WNW,284,1.0,5.0,69,0.00,,,0.00,meteohub,2013-08-17 14:29:00,
2013-08-17 07:34:00,67.5,56.5,30.30,SSW,206,0.0,6.0,68,0.00,,,0.00,meteohub,2013-08-17 14:34:00,
2013-08-17 07:39:00,67.8,56.8,30.30,NW,322,5.0,7.0,68,0.00,,,0.00,meteohub,2013-08-17 14:39:00,
2013-08-17 07:44:00,67.8,56.5,30.30,West,274,3.0,9.0,67,0.00,,,0.00,meteohub,2013-08-17 14:44:00,
2013-08-17 07:49:00,68.0,56.3,30.30,West,271,1.0,10.0,66,0.00,,,0.00,meteohub,2013-08-17 14:49:00,
2013-08-17 07:54:00,68.2,56.3,30.30,WNW,290,5.0,10.0,66,0.00,,,0.00,meteohub,2013-08-17 14:54:00,
2013-08-17 07:59:00,68.4,56.5,30.30,SSW,200,2.0,10.0,66,0.00,,,0.00,meteohub,2013-08-17 14:59:00,
2013-08-17 08:04:00,68.4,56.5,30.30,WSW,237,2.0,8.0,66,0.00,,,0.00,meteohub,2013-08-17 15:04:00,
2013-08-17 08:09:00,68.5,56.7,30.30,WSW,237,3.0,7.0,66,0.00,,,0.00,meteohub,2013-08-17 15:09:00,
2013-08-17 08:14:00,68.7,56.8,30.30,WSW,237,2.0,9.0,66,0.00,,,0.00,meteohub,2013-08-17 15:14:00,
2013-08-17 08:20:00,69.1,56.8,30.30,WSW,256,3.0,9.0,65,0.00,,,0.00,meteohub,2013-08-17 15:20:00,
2013-08-17 08:25:00,69.3,56.5,30.30,SW,226,3.0,9.0,64,0.00,,,0.00,meteohub,2013-08-17 15:25:00,
2013-08-17 08:30:00,69.4,56.7,30.30,WSW,242,10.0,11.0,64,0.00,,,0.00,meteohub,2013-08-17 15:30:00,
2013-08-17 08:35:00,69.6,56.8,30.29,WNW,286,3.0,11.0,64,0.00,,,0.00,meteohub,2013-08-17 15:35:00,
2013-08-17 08:40:00,70.0,56.8,30.30,WSW,245,7.0,11.0,63,0.00,,,0.00,meteohub,2013-08-17 15:40:00,
2013-08-17 08:45:00,70.0,56.8,30.30,WSW,244,4.0,11.0,63,0.00,,,0.00,meteohub,2013-08-17 15:45:00,
2013-08-17 08:50:00,70.2,56.5,30.30,WSW,248,7.0,12.0,62,0.00,,,0.00,meteohub,2013-08-17 15:50:00,
2013-08-17 08:55:00,70.3,56.3,30.30,West,265,6.0,12.0,61,0.00,,,0.00,meteohub,2013-08-17 15:55:00,
2013-08-17 09:00:00,70.5,55.9,30.30,SW,230,7.0,12.0,60,0.00,,,0.00,meteohub,2013-08-17 16:00:00,
2013-08-17 09:05:00,71.1,55.9,30.30,WNW,282,6.0,14.0,59,0.00,,,0.00,meteohub,2013-08-17 16:05:00,
2013-08-17 09:10:00,71.2,56.1,30.30,West,276,5.0,14.0,59,0.00,,,0.00,meteohub,2013-08-17 16:10:00,
2013-08-17 09:15:00,71.2,56.1,30.30,WNW,295,3.0,11.0,59,0.00,,,0.00,meteohub,2013-08-17 16:15:00,
2013-08-17 09:20:00,71.6,57.0,30.29,West,264,1.0,12.0,60,0.00,,,0.00,meteohub,2013-08-17 16:20:00,
2013-08-17 09:26:00,72.0,56.3,30.29,SW,226,10.0,12.0,58,0.00,,,0.00,meteohub,2013-08-17 16:26:00,
2013-08-17 09:31:00,72.1,56.1,30.29,West,259,7.0,12.0,57,0.00,,,0.00,meteohub,2013-08-17 16:31:00,
2013-08-17 09:36:00,72.1,56.5,30.29,WSW,249,10.0,14.0,58,0.00,,,0.00,meteohub,2013-08-17 16:36:00,
2013-08-17 09:41:00,72.5,56.5,30.29,WNW,300,2.0,14.0,57,0.00,,,0.00,meteohub,2013-08-17 16:41:00,
2013-08-17 09:46:00,72.9,56.3,30.29,South,191,2.0,11.0,56,0.00,,,0.00,meteohub,2013-08-17 16:46:00,
2013-08-17 09:51:00,72.9,56.3,30.29,WNW,297,3.0,11.0,56,0.00,,,0.00,meteohub,2013-08-17 16:51:00,
2013-08-17 09:56:00,73.0,56.5,30.29,WSW,246,6.0,11.0,56,0.00,,,0.00,meteohub,2013-08-17 16:56:00,
2013-08-17 10:01:00,72.9,55.8,30.29,NW,317,6.0,11.0,55,0.00,,,0.00,meteohub,2013-08-17 17:01:00,
2013-08-17 10:07:00,73.2,56.7,30.29,SW,236,4.0,11.0,56,0.00,,,0.00,meteohub,2013-08-17 17:07:00,
2013-08-17 10:12:00,73.8,56.7,30.29,WNW,295,7.0,11.0,55,0.00,,,0.00,meteohub,2013-08-17 17:12:00,
2013-08-17 10:17:00,74.1,55.9,30.29,NW,317,5.0,10.0,53,0.00,,,0.00,meteohub,2013-08-17 17:17:00,
2013-08-17 10:22:00,74.5,56.7,30.29,South,184,6.0,10.0,54,0.00,,,0.00,meteohub,2013-08-17 17:22:00,
2013-08-17 10:27:00,74.5,56.3,30.28,SW,219,1.0,13.0,53,0.00,,,0.00,meteohub,2013-08-17 17:27:00,
2013-08-17 10:32:00,74.8,56.5,30.28,WSW,241,6.0,13.0,53,0.00,,,0.00,meteohub,2013-08-17 17:32:00,
2013-08-17 10:37:00,75.0,56.7,30.28,WSW,252,5.0,13.0,53,0.00,,,0.00,meteohub,2013-08-17 17:37:00,
2013-08-17 10:42:00,75.7,56.8,30.28,SSW,210,4.0,13.0,52,0.00,,,0.00,meteohub,2013-08-17 17:42:00,
2013-08-17 10:47:00,76.5,57.0,30.28,WSW,250,11.0,13.0,51,0.00,,,0.00,meteohub,2013-08-17 17:47:00,
2013-08-17 10:52:00,76.6,57.2,30.28,SW,225,7.0,14.0,51,0.00,,,0.00,meteohub,2013-08-17 17:52:00,
2013-08-17 10:57:00,76.8,56.8,30.28,West,259,7.0,14.0,50,0.00,,,0.00,meteohub,2013-08-17 17:57:00,
2013-08-17 11:02:00,76.6,57.7,30.28,WNW,283,8.0,15.0,52,0.00,,,0.00,meteohub,2013-08-17 18:02:00,
2013-08-17 11:07:00,76.5,57.6,30.28,WSW,238,7.0,15.0,52,0.00,,,0.00,meteohub,2013-08-17 18:07:00,
2013-08-17 11:12:00,76.1,56.7,30.28,South,191,3.0,15.0,51,0.00,,,0.00,meteohub,2013-08-17 18:12:00,
2013-08-17 11:17:00,75.7,56.3,30.28,WSW,253,9.0,15.0,51,0.00,,,0.00,meteohub,2013-08-17 18:17:00,
2013-08-17 11:22:00,75.4,55.4,30.27,SSW,202,9.0,18.0,50,0.00,,,0.00,meteohub,2013-08-17 18:22:00,
2013-08-17 11:28:00,75.2,55.2,30.28,SSW,211,8.0,21.0,50,0.00,,,0.00,meteohub,2013-08-17 18:28:00,
2013-08-17 11:33:00,75.0,55.0,30.27,West,261,11.0,21.0,50,0.00,,,0.00,meteohub,2013-08-17 18:33:00,
2013-08-17 11:38:00,75.2,54.7,30.27,SW,219,7.0,21.0,49,0.00,,,0.00,meteohub,2013-08-17 18:38:00,
2013-08-17 11:43:00,75.4,54.9,30.27,SW,227,6.0,17.0,49,0.00,,,0.00,meteohub,2013-08-17 18:43:00,
2013-08-17 11:48:00,75.6,55.0,30.27,SW,232,10.0,18.0,49,0.00,,,0.00,meteohub,2013-08-17 18:48:00,
2013-08-17 11:53:00,76.3,55.8,30.27,WNW,285,5.0,18.0,49,0.00,,,0.00,meteohub,2013-08-17 18:53:00,
2013-08-17 11:59:00,76.3,55.8,30.27,WSW,240,8.0,16.0,49,0.00,,,0.00,meteohub,2013-08-17 18:59:00,
2013-08-17 12:04:00,76.6,56.1,30.27,WNW,288,8.0,17.0,49,0.00,,,0.00,meteohub,2013-08-17 19:04:00,
2013-08-17 12:09:00,76.8,55.6,30.26,WSW,240,5.0,17.0,48,0.00,,,0.00,meteohub,2013-08-17 19:09:00,
2013-08-17 12:14:00,76.8,56.3,30.26,WNW,285,2.0,17.0,49,0.00,,,0.00,meteohub,2013-08-17 19:14:00,
2013-08-17 12:19:00,77.0,55.2,30.26,SSW,211,4.0,12.0,47,0.00,,,0.00,meteohub,2013-08-17 19:19:00,
2013-08-17 12:24:00,76.8,55.6,30.26,WNW,294,9.0,12.0,48,0.00,,,0.00,meteohub,2013-08-17 19:24:00,
2013-08-17 12:29:00,76.8,55.6,30.25,WSW,245,15.0,15.0,48,0.00,,,0.00,meteohub,2013-08-17 19:29:00,
2013-08-17 12:35:00,77.0,55.8,30.25,WSW,248,7.0,15.0,48,0.00,,,0.00,meteohub,2013-08-17 19:35:00,
2013-08-17 12:40:00,76.8,55.6,30.25,West,273,6.0,15.0,48,0.00,,,0.00,meteohub,2013-08-17 19:40:00,
2013-08-17 12:45:00,76.6,55.4,30.25,WNW,300,2.0,15.0,48,0.00,,,0.00,meteohub,2013-08-17 19:45:00,
2013-08-17 12:50:00,76.6,54.9,30.25,SW,219,7.0,16.0,47,0.00,,,0.00,meteohub,2013-08-17 19:50:00,
2013-08-17 12:55:00,76.8,55.0,30.25,SW,230,7.0,16.0,47,0.00,,,0.00,meteohub,2013-08-17 19:55:00,
2013-08-17 13:00:00,76.8,55.0,30.25,WSW,252,9.0,19.0,47,0.00,,,0.00,meteohub,2013-08-17 20:00:00,
2013-08-17 13:05:00,76.8,55.6,30.25,West,260,3.0,19.0,48,0.00,,,0.00,meteohub,2013-08-17 20:05:00,
2013-08-17 13:10:00,77.4,56.1,30.25,SW,227,10.0,19.0,48,0.00,,,0.00,meteohub,2013-08-17 20:10:00,
2013-08-17 13:16:00,78.1,56.3,30.25,WNW,287,8.0,19.0,47,0.00,,,0.00,meteohub,2013-08-17 20:16:00,
2013-08-17 13:21:00,79.0,55.8,30.25,West,277,6.0,19.0,45,0.00,,,0.00,meteohub,2013-08-17 20:21:00,
2013-08-17 13:26:00,79.2,56.7,30.25,SW,236,12.0,19.0,46,0.00,,,0.00,meteohub,2013-08-17 20:26:00,
2013-08-17 13:31:00,79.2,55.9,30.25,SW,230,10.0,17.0,45,0.00,,,0.00,meteohub,2013-08-17 20:31:00,
2013-08-17 13:36:00,79.2,55.9,30.25,West,270,5.0,16.0,45,0.00,,,0.00,meteohub,2013-08-17 20:36:00,
2013-08-17 13:41:00,79.3,56.1,30.25,South,190,8.0,16.0,45,0.00,,,0.00,meteohub,2013-08-17 20:41:00,
2013-08-17 13:47:00,79.9,56.7,30.25,WSW,242,10.0,16.0,45,0.00,,,0.00,meteohub,2013-08-17 20:47:00,
2013-08-17 13:52:00,80.1,57.4,30.25,WSW,254,7.0,15.0,46,0.00,,,0.00,meteohub,2013-08-17 20:52:00,
2013-08-17 13:57:00,80.2,56.3,30.25,WSW,256,10.0,15.0,44,0.00,,,0.00,meteohub,2013-08-17 20:57:00,
2013-08-17 14:02:00,79.7,56.5,30.25,West,259,6.0,17.0,45,0.00,,,0.00,meteohub,2013-08-17 21:02:00,
2013-08-17 14:07:00,79.5,56.8,30.25,WSW,252,5.0,20.0,46,0.00,,,0.00,meteohub,2013-08-17 21:07:00,
2013-08-17 14:12:00,80.1,57.4,30.24,SW,227,14.0,20.0,46,0.00,,,0.00,meteohub,2013-08-17 21:12:00,
2013-08-17 14:17:00,81.0,57.6,30.25,WSW,250,10.0,20.0,45,0.00,,,0.00,meteohub,2013-08-17 21:17:00,
2013-08-17 14:22:00,81.3,57.4,30.24,WSW,252,9.0,17.0,44,0.00,,,0.00,meteohub,2013-08-17 21:22:00,
2013-08-17 14:27:00,81.1,57.2,30.24,West,271,6.0,17.0,44,0.00,,,0.00,meteohub,2013-08-17 21:27:00,
2013-08-17 14:32:00,81.1,57.7,30.24,West,268,5.0,17.0,45,0.00,,,0.00,meteohub,2013-08-17 21:32:00,
2013-08-17 14:37:00,81.1,57.7,30.24,WSW,253,7.0,16.0,45,0.00,,,0.00,meteohub,2013-08-17 21:37:00,
2013-08-17 14:43:00,81.5,57.6,30.24,SSW,205,5.0,16.0,44,0.00,,,0.00,meteohub,2013-08-17 21:43:00,
2013-08-17 14:48:00,81.7,57.0,30.24,West,272,7.0,16.0,43,0.00,,,0.00,meteohub,2013-08-17 21:48:00,
2013-08-17 14:53:00,81.9,57.2,30.23,SSW,192,5.0,16.0,43,0.00,,,0.00,meteohub,2013-08-17 21:53:00,
2013-08-17 14:58:00,81.7,57.0,30.23,WSW,238,8.0,15.0,43,0.00,,,0.00,meteohub,2013-08-17 21:58:00,
2013-08-17 15:03:00,82.0,57.4,30.23,SW,219,8.0,17.0,43,0.00,,,0.00,meteohub,2013-08-17 22:03:00,
2013-08-17 15:08:00,82.0,56.7,30.23,NW,304,7.0,17.0,42,0.00,,,0.00,meteohub,2013-08-17 22:08:00,
2013-08-17 15:14:00,82.0,56.7,30.23,WNW,283,8.0,16.0,42,0.00,,,0.00,meteohub,2013-08-17 22:14:00,
2013-08-17 15:19:00,82.2,56.8,30.23,WSW,250,5.0,17.0,42,0.00,,,0.00,meteohub,2013-08-17 22:19:00,
2013-08-17 15:24:00,82.6,56.5,30.23,West,266,3.0,17.0,41,0.00,,,0.00,meteohub,2013-08-17 22:24:00,
2013-08-17 15:29:00,82.2,56.8,30.22,SW,233,5.0,17.0,42,0.00,,,0.00,meteohub,2013-08-17 22:29:00,
2013-08-17 15:34:00,82.9,56.8,30.22,WSW,252,7.0,15.0,41,0.00,,,0.00,meteohub,2013-08-17 22:34:00,
2013-08-17 15:39:00,82.8,57.4,30.22,West,263,7.0,15.0,42,0.00,,,0.00,meteohub,2013-08-17 22:39:00,
2013-08-17 15:45:00,83.1,57.0,30.22,WNW,288,5.0,13.0,41,0.00,,,0.00,meteohub,2013-08-17 22:45:00,
2013-08-17 15:50:00,82.9,57.6,30.22,WSW,244,10.0,14.0,42,0.00,,,0.00,meteohub,2013-08-17 22:50:00,
2013-08-17 15:55:00,83.1,57.6,30.22,SW,214,7.0,14.0,42,0.00,,,0.00,meteohub,2013-08-17 22:55:00,
2013-08-17 16:00:00,83.1,57.0,30.22,SW,222,4.0,14.0,41,0.00,,,0.00,meteohub,2013-08-17 23:00:00,
2013-08-17 16:05:00,82.9,56.8,30.22,West,271,4.0,14.0,41,0.00,,,0.00,meteohub,2013-08-17 23:05:00,
2013-08-17 16:10:00,82.9,56.8,30.22,SW,227,5.0,14.0,41,0.00,,,0.00,meteohub,2013-08-17 23:10:00,
2013-08-17 16:16:00,83.1,57.0,30.22,SW,227,12.0,12.0,41,0.00,,,0.00,meteohub,2013-08-17 23:16:00,
2013-08-17 16:21:00,83.1,57.0,30.21,SW,214,6.0,14.0,41,0.00,,,0.00,meteohub,2013-08-17 23:21:00,
2013-08-17 16:26:00,83.1,57.0,30.22,West,268,5.0,14.0,41,0.00,,,0.00,meteohub,2013-08-17 23:26:00,
2013-08-17 16:31:00,83.1,57.0,30.22,SSW,200,7.0,14.0,41,0.00,,,0.00,meteohub,2013-08-17 23:31:00,
2013-08-17 16:36:00,83.5,57.4,30.21,West,265,12.0,12.0,41,0.00,,,0.00,meteohub,2013-08-17 23:36:00,
2013-08-17 16:41:00,83.3,57.2,30.22,SW,227,4.0,13.0,41,0.00,,,0.00,meteohub,2013-08-17 23:41:00,
2013-08-17 16:46:00,83.1,57.0,30.21,WSW,241,6.0,13.0,41,0.00,,,0.00,meteohub,2013-08-17 23:46:00,
2013-08-17 16:51:00,83.1,57.0,30.21,SW,236,6.0,13.0,41,0.00,,,0.00,meteohub,2013-08-17 23:51:00,
2013-08-17 16:57:00,82.9,56.8,30.22,WSW,250,7.0,15.0,41,0.00,,,0.00,meteohub,2013-08-17 23:57:00,
2013-08-17 17:02:00,82.8,57.4,30.21,SSE,163,4.0,17.0,42,0.00,,,0.00,meteohub,2013-08-18 00:02:00,
2013-08-17 17:07:00,82.8,57.4,30.22,SW,230,15.0,17.0,42,0.00,,,0.00,meteohub,2013-08-18 00:07:00,
2013-08-17 17:12:00,82.8,57.4,30.21,West,276,8.0,17.0,42,0.00,,,0.00,meteohub,2013-08-18 00:12:00,
2013-08-17 17:17:00,82.9,57.6,30.21,West,267,2.0,16.0,42,0.00,,,0.00,meteohub,2013-08-18 00:17:00,
2013-08-17 17:22:00,82.8,57.4,30.21,SW,227,7.0,16.0,42,0.00,,,0.00,meteohub,2013-08-18 00:22:00,
2013-08-17 17:28:00,82.6,57.2,30.21,SW,230,7.0,14.0,42,0.00,,,0.00,meteohub,2013-08-18 00:28:00,
2013-08-17 17:33:00,82.2,57.6,30.21,West,259,7.0,17.0,43,0.00,,,0.00,meteohub,2013-08-18 00:33:00,
2013-08-17 17:38:00,82.4,57.0,30.21,West,279,8.0,17.0,42,0.00,,,0.00,meteohub,2013-08-18 00:38:00,
2013-08-17 17:43:00,82.2,56.8,30.21,West,277,5.0,15.0,42,0.00,,,0.00,meteohub,2013-08-18 00:43:00,
2013-08-17 17:49:00,82.0,57.4,30.21,SW,233,4.0,17.0,43,0.00,,,0.00,meteohub,2013-08-18 00:49:00,
2013-08-17 17:54:00,81.9,57.2,30.21,WNW,300,2.0,17.0,43,0.00,,,0.00,meteohub,2013-08-18 00:54:00,
2013-08-17 17:59:00,82.2,57.6,30.21,WSW,240,14.0,17.0,43,0.00,,,0.00,meteohub,2013-08-18 00:59:00,
2013-08-17 18:04:00,82.0,57.4,30.21,SW,230,4.0,16.0,43,0.00,,,0.00,meteohub,2013-08-18 01:04:00,
2013-08-17 18:09:00,81.9,57.2,30.22,SW,227,5.0,15.0,43,0.00,,,0.00,meteohub,2013-08-18 01:09:00,
2013-08-17 18:14:00,81.7,57.0,30.22,West,272,4.0,15.0,43,0.00,,,0.00,meteohub,2013-08-18 01:14:00,
2013-08-17 18:19:00,81.5,56.8,30.22,WSW,248,4.0,12.0,43,0.00,,,0.00,meteohub,2013-08-18 01:19:00,
2013-08-17 18:24:00,81.3,56.7,30.22,SW,227,5.0,12.0,43,0.00,,,0.00,meteohub,2013-08-18 01:24:00,
2013-08-17 18:29:00,81.1,56.5,30.22,SSE,160,6.0,10.0,43,0.00,,,0.00,meteohub,2013-08-18 01:29:00,
2013-08-17 18:35:00,81.1,56.5,30.22,SSW,211,4.0,15.0,43,0.00,,,0.00,meteohub,2013-08-18 01:35:00,
2013-08-17 18:40:00,81.0,56.3,30.22,SW,233,8.0,15.0,43,0.00,,,0.00,meteohub,2013-08-18 01:40:00,
2013-08-17 18:45:00,81.0,56.3,30.22,SW,230,5.0,15.0,43,0.00,,,0.00,meteohub,2013-08-18 01:45:00,
2013-08-17 18:50:00,80.8,56.1,30.22,WSW,248,5.0,13.0,43,0.00,,,0.00,meteohub,2013-08-18 01:50:00,
2013-08-17 18:55:00,80.8,56.1,30.22,West,274,6.0,11.0,43,0.00,,,0.00,meteohub,2013-08-18 01:55:00,
2013-08-17 19:00:00,80.4,56.5,30.22,WSW,242,4.0,11.0,44,0.00,,,0.00,meteohub,2013-08-18 02:00:00,
2013-08-17 19:05:00,80.1,56.1,30.22,SW,219,6.0,11.0,44,0.00,,,0.00,meteohub,2013-08-18 02:05:00,
2013-08-17 19:11:00,79.3,56.1,30.22,WSW,237,4.0,13.0,45,0.00,,,0.00,meteohub,2013-08-18 02:11:00,
2013-08-17 19:16:00,79.2,56.7,30.22,SSW,207,2.0,16.0,46,0.00,,,0.00,meteohub,2013-08-18 02:16:00,
2013-08-17 19:21:00,78.8,56.3,30.22,WSW,250,5.0,16.0,46,0.00,,,0.00,meteohub,2013-08-18 02:21:00,
2013-08-17 19:26:00,78.6,56.1,30.22,WNW,292,5.0,14.0,46,0.00,,,0.00,meteohub,2013-08-18 02:26:00,
2013-08-17 19:31:00,78.3,57.0,30.22,West,271,5.0,13.0,48,0.00,,,0.00,meteohub,2013-08-18 02:31:00,
2013-08-17 19:36:00,78.1,56.8,30.22,West,277,10.0,13.0,48,0.00,,,0.00,meteohub,2013-08-18 02:36:00,
2013-08-17 19:41:00,77.7,56.5,30.22,NW,304,4.0,13.0,48,0.00,,,0.00,meteohub,2013-08-18 02:41:00,
2013-08-17 19:47:00,77.5,56.8,30.23,WSW,247,5.0,13.0,49,0.00,,,0.00,meteohub,2013-08-18 02:47:00,
2013-08-17 19:52:00,77.2,57.0,30.23,SW,233,3.0,13.0,50,0.00,,,0.00,meteohub,2013-08-18 02:52:00,
2013-08-17 19:57:00,76.8,56.8,30.23,SSW,211,5.0,13.0,50,0.00,,,0.00,meteohub,2013-08-18 02:57:00,
2013-08-17 20:02:00,76.6,57.2,30.23,WSW,240,3.0,10.0,51,0.00,,,0.00,meteohub,2013-08-18 03:02:00,
2013-08-17 20:07:00,76.5,57.0,30.23,WSW,257,1.0,10.0,51,0.00,,,0.00,meteohub,2013-08-18 03:07:00,
2013-08-17 20:13:00,76.3,56.8,30.23,WSW,256,2.0,10.0,51,0.00,,,0.00,meteohub,2013-08-18 03:13:00,
2013-08-17 20:18:00,76.1,57.2,30.24,SSW,211,2.0,9.0,52,0.00,,,0.00,meteohub,2013-08-18 03:18:00,
2013-08-17 20:23:00,75.9,57.0,30.24,South,190,2.0,9.0,52,0.00,,,0.00,meteohub,2013-08-18 03:23:00,
2013-08-17 20:28:00,75.9,57.0,30.24,SE,130,2.0,7.0,52,0.00,,,0.00,meteohub,2013-08-18 03:28:00,
2013-08-17 20:34:00,75.7,56.8,30.24,WSW,248,3.0,7.0,52,0.00,,,0.00,meteohub,2013-08-18 03:34:00,
2013-08-17 20:39:00,75.6,56.7,30.24,SSE,163,1.0,9.0,52,0.00,,,0.00,meteohub,2013-08-18 03:39:00,
2013-08-17 20:44:00,75.4,56.5,30.25,SSW,200,3.0,9.0,52,0.00,,,0.00,meteohub,2013-08-18 03:44:00,
2013-08-17 20:49:00,75.2,56.8,30.25,SW,225,1.0,9.0,53,0.00,,,0.00,meteohub,2013-08-18 03:49:00,
2013-08-17 20:54:00,75.0,57.2,30.25,SW,230,1.0,7.0,54,0.00,,,0.00,meteohub,2013-08-18 03:54:00,
2013-08-17 20:59:00,74.8,57.0,30.25,SW,219,2.0,7.0,54,0.00,,,0.00,meteohub,2013-08-18 03:59:00,
2013-08-17 21:01:00,74.8,57.0,30.25,WSW,242,6.0,6.0,54,0.00,,,0.00,meteohub,2013-08-18 04:01:00,
2013-08-17 21:02:00,74.8,57.0,30.25,SW,236,4.0,5.0,54,0.00,,,0.00,meteohub,2013-08-18 04:02:00,
2013-08-17 21:03:00,74.8,56.5,30.25,SW,232,4.0,5.0,53,0.00,,,0.00,meteohub,2013-08-18 04:03:00,
2013-08-17 21:06:00,74.8,56.5,30.25,SW,226,3.0,8.0,53,0.00,,,0.00,meteohub,2013-08-18 04:06:00,
2013-08-17 21:07:00,74.8,56.5,30.25,SSW,199,4.0,8.0,53,0.00,,,0.00,meteohub,2013-08-18 04:07:00,
2013-08-17 21:13:00,74.7,56.5,30.25,SSW,199,3.0,8.0,53,0.00,,,0.00,meteohub,2013-08-18 04:13:00,
2013-08-17 21:18:00,74.7,55.9,30.25,WSW,244,3.0,8.0,52,0.00,,,0.00,meteohub,2013-08-18 04:18:00,
2013-08-17 21:23:00,74.5,55.8,30.25,WSW,256,4.0,9.0,52,0.00,,,0.00,meteohub,2013-08-18 04:23:00,
2013-08-17 21:28:00,74.7,55.9,30.26,SSW,211,2.0,10.0,52,0.00,,,0.00,meteohub,2013-08-18 04:28:00,
2013-08-17 21:33:00,74.5,55.8,30.26,SW,221,3.0,12.0,52,0.00,,,0.00,meteohub,2013-08-18 04:33:00,
2013-08-17 21:38:00,74.1,55.4,30.26,WSW,242,2.0,12.0,52,0.00,,,0.00,meteohub,2013-08-18 04:38:00,
2013-08-17 21:43:00,74.1,55.4,30.26,SW,225,2.0,12.0,52,0.00,,,0.00,meteohub,2013-08-18 04:43:00,
2013-08-17 21:48:00,74.1,55.4,30.26,SW,236,3.0,9.0,52,0.00,,,0.00,meteohub,2013-08-18 04:48:00,
2013-08-17 21:53:00,73.9,55.2,30.26,WSW,256,3.0,9.0,52,0.00,,,0.00,meteohub,2013-08-18 04:53:00,
2013-08-17 21:58:00,73.9,55.2,30.26,SW,236,4.0,10.0,52,0.00,,,0.00,meteohub,2013-08-18 04:58:00,
2013-08-17 22:04:00,73.8,55.0,30.27,SW,230,3.0,10.0,52,0.00,,,0.00,meteohub,2013-08-18 05:04:00,
2013-08-17 22:09:00,73.6,54.9,30.27,SW,232,4.0,12.0,52,0.00,,,0.00,meteohub,2013-08-18 05:09:00,
2013-08-17 22:14:00,73.6,55.4,30.27,SSW,196,3.0,12.0,53,0.00,,,0.00,meteohub,2013-08-18 05:14:00,
2013-08-17 22:19:00,73.6,55.4,30.27,SW,223,2.0,12.0,53,0.00,,,0.00,meteohub,2013-08-18 05:19:00,
2013-08-17 22:24:00,73.2,56.1,30.27,WSW,237,3.0,10.0,55,0.00,,,0.00,meteohub,2013-08-18 05:24:00,
2013-08-17 22:29:00,73.0,55.9,30.27,SW,227,3.0,10.0,55,0.00,,,0.00,meteohub,2013-08-18 05:29:00,
2013-08-17 22:34:00,73.0,56.5,30.26,West,272,2.0,8.0,56,0.00,,,0.00,meteohub,2013-08-18 05:34:00,
2013-08-17 22:39:00,72.9,56.3,30.26,West,267,1.0,9.0,56,0.00,,,0.00,meteohub,2013-08-18 05:39:00,
2013-08-17 22:44:00,72.7,56.5,30.26,WNW,283,2.0,9.0,57,0.00,,,0.00,meteohub,2013-08-18 05:44:00,
2013-08-17 22:49:00,72.3,56.7,30.26,WNW,300,0.0,5.0,58,0.00,,,0.00,meteohub,2013-08-18 05:49:00,
2013-08-17 22:54:00,72.0,56.8,30.26,NW,317,2.0,7.0,59,0.00,,,0.00,meteohub,2013-08-18 05:54:00,
2013-08-17 22:59:00,71.8,56.7,30.26,WNW,283,2.0,7.0,59,0.00,,,0.00,meteohub,2013-08-18 05:59:00,
2013-08-17 23:04:00,71.4,56.8,30.26,SSW,210,2.0,5.0,60,0.00,,,0.00,meteohub,2013-08-18 06:04:00,
2013-08-17 23:10:00,71.2,57.6,30.26,SW,225,3.0,4.0,62,0.00,,,0.00,meteohub,2013-08-18 06:10:00,
2013-08-17 23:15:00,71.2,57.9,30.26,WSW,253,1.0,4.0,63,0.00,,,0.00,meteohub,2013-08-18 06:15:00,
2013-08-17 23:20:00,71.1,57.7,30.26,WSW,247,2.0,6.0,63,0.00,,,0.00,meteohub,2013-08-18 06:20:00,
2013-08-17 23:25:00,70.9,58.1,30.27,West,259,1.0,6.0,64,0.00,,,0.00,meteohub,2013-08-18 06:25:00,
2013-08-17 23:30:00,70.9,58.1,30.27,WSW,253,1.0,7.0,64,0.00,,,0.00,meteohub,2013-08-18 06:30:00,
2013-08-17 23:35:00,70.5,57.7,30.27,SSW,199,1.0,8.0,64,0.00,,,0.00,meteohub,2013-08-18 06:35:00,
2013-08-17 23:40:00,70.3,58.1,30.27,WSW,242,1.0,8.0,65,0.00,,,0.00,meteohub,2013-08-18 06:40:00,
2013-08-17 23:45:00,70.3,58.1,30.27,SSW,209,1.0,8.0,65,0.00,,,0.00,meteohub,2013-08-18 06:45:00,
2013-08-17 23:50:00,70.2,57.9,30.27,West,270,0.0,7.0,65,0.00,,,0.00,meteohub,2013-08-18 06:50:00,
2013-08-17 23:55:00,70.2,57.9,30.27,WSW,256,3.0,6.0,65,0.00,,,0.00,meteohub,2013-08-18 06:55:00,